Location: *
(35.8942°N, 23.3025°E)
Time: 17:19:37
(UTC+00:00)

Gurwin Techsat 1B - Pass Details

Date: 02 April 2023
Orbit: 811 x 813 km, 98.9° (Epoch: 03 June)

Event Time Altitude Azimuth Distance (km) Brightness Sun altitude
Rises 01:39:58 0° 8° (N) 3,344 12.3 -29.9°
Reaches altitude 10° 01:42:21 10° 5° (N) 2,408 11.5 -29.5°
Enters shadow 01:46:06 43° 340° (NNW) 1,130 9.3 -28.8°
